Location: Le Castellard
(44.1862°N, 6.1301°E)
Time: 21:15:33
(UTC+00:00)

Cosmos 1470 - Pass Details

Date: 18 January 2020
Orbit: 521 x 543 km, 82.5° (Epoch: 16 February)

Event Time Altitude Azimuth Distance (km) Brightness Sun altitude
Rises 05:53:09 0° 224° (SW) 2,688 6.1 -12.9°
Reaches altitude 10° 05:55:48 10° 242° (WSW) 1,805 5.0 -12.5°
Enters shadow 05:55:50 10° 243° (WSW) 1,796 5.0 -12.5°
Exits shadow 05:56:22 12° 249° (WSW) 1,652 4.8 -12.4°
Maximum altitude 05:58:40 19° 289° (WNW) 1,333 4.1 -12.0°
Drops below altitude 10° 06:01:34 10° 336° (NNW) 1,819 5.1 -11.5°
Sets 06:04:16 0° 354° (N) 2,717 6.1 -11.0°
